RH
82 81 81 80 81 80 76 70 64 61 61 67 71 75 77 80 73 13 16 31 41 68 66 25 18 18 17 23 23 24 24 29 29 27 26 23 24 27 24 29 29 27 27 25 22
82 82 81 81 81 79 74 68 61 58 66 70 73 75 76 74 10 11 42 57 64 66 21 17 16 16 19 21 22 22 27 29 21 19 31 30 30 28 30 30 29 26 20 18 16
81 81 81 81 80 77 74 68 61 67 67 69 71 75 74 43 13 10 48 54 58 46 17 16 14 15 21 21 21 20 23 21 25 21 19 28 30 28 31 35 27 24 20 17 16
80 82 81 81 80 76 72 68 63 64 65 69 74 74 74 14 16 10 47 54 56 18 15 14 14 18 20 21 17 22 21 22 29 27 26 30 24 24 25 26 19 19 16 14 14
81 81 81 82 79 76 71 68 65 64 67 72 72 56 20 10 12 9 46 30 7 10 15 16 13 15 18 16 17 19 20 22 22 27 25 23 26 24 23 19 16 15 15 15 14
81 82 83 83 81 78 73 68 64 62 68 72 65 62 9 14 10 8 8 8 9 11 15 15 15 14 18 18 19 16 16 17 19 22 25 25 24 22 20 16 16 16 16 14 14
81 81 83 83 82 79 75 71 67 71 68 61 52 10 10 14 9 8 9 9 9 10 14 11 13 16 16 20 14 14 17 17 15 14 20 17 27 25 18 16 16 15 13 14 13
80 80 84 82 81 77 70 66 67 63 55 62 60 8 12 10 8 8 10 10 8 7 9 9 9 11 14 14 14 15 12 13 17 14 15 16 30 23 17 17 17 14 12 13 11
80 81 84 82 80 77 67 62 60 58 49 43 11 6 9 18 10 8 10 13 11 8 8 7 8 10 9 10 10 9 10 11 18 16 14 16 29 22 18 17 16 14 13 12 12
83 83 81 80 77 74 69 53 55 41 20 9 7 8 9 10 9 8 9 11 11 10 9 8 8 10 10 10 13 14 13 12 14 15 15 22 27 23 19 18 18 14 13 12 11
82 81 80 76 78 73 36 15 12 10 11 13 12 10 10 9 8 9 10 10 8 8 10 11 12 16 14 14 13 12 13 13 12 20 18 22 26 25 21 18 17 14 12 11 10
82 79 76 73 71 68 25 14 22 13 18 13 9 10 12 10 9 9 10 10 10 11 11 12 18 16 13 14 13 13 12 13 13 13 14 22 28 27 24 18 15 13 11 11 14
81 76 70 63 68 34 18 22 23 19 13 19 13 11 13 12 13 11 13 12 14 15 14 17 16 12 12 15 15 15 14 16 17 16 16 21 29 30 22 15 13 10 10 12 16
74 73 65 61 34 18 20 24 24 23 14 18 14 12 10 15 15 11 11 17 14 18 19 20 15 14 14 17 16 16 14 17 19 20 20 19 22 30 21 17 12 10 12 14 18
72 64 67 61 19 16 26 26 24 22 19 18 16 11 10 14 16 13 10 11 15 15 19 28 21 18 18 22 17 16 15 15 18 23 20 23 15 21 17 17 11 12 14 17 18
72 66 56 25 18 28 26 27 23 22 26 20 13 13 12 14 13 12 11 11 14 14 16 18 17 16 15 14 17 13 11 19 25 23 22 17 14 23 22 13 12 13 16 19 18
72 65 38 23 21 28 27 21 19 20 22 19 20 13 13 18 16 16 14 15 18 20 18 16 17 16 14 14 15 13 14 21 18 18 14 12 14 28 18 10 13 18 18 19 19
65 55 46 25 24 27 20 17 20 26 21 24 20 13 15 19 19 15 14 16 16 17 17 16 20 18 14 16 20 16 13 18 33 20 19 14 15 30 14 8 12 16 19 21 23
58 18 20 21 23 22 18 16 27 23 26 21 17 13 15 17 18 17 19 22 21 18 21 15 23 19 18 16 12 12 14 17 23 15 20 11 18 20 10 10 14 17 22 26 26
19 18 21 20 20 21 16 37 30 30 26 23 18 16 17 20 17 17 21 24 25 21 17 14 20 17 18 16 14 13 10 16 16 47 29 10 13 19 14 16 16 20 24 27 27
19 18 19 19 18 15 20 30 30 28 27 22 16 15 19 22 19 18 23 29 26 23 19 15 14 19 17 23 19 14 13 13 18 19 30 24 16 10 12 16 18 21 23 28 28
18 20 19 19 18 19 23 26 42 24 21 20 18 18 20 22 24 23 24 28 32 27 19 20 19 18 20 19 16 17 18 16 45 35 30 40 28 9 12 14 20 22 25 26 27
18 20 18 19 36 35 28 29 26 21 22 18 20 22 20 23 31 29 30 35 36 34 27 24 17 25 29 29 22 22 23 21 27 37 47 47 25 11 14 17 21 23 27 27 20
22 35 20 19 23 20 22 21 25 24 22 18 18 17 18 21 26 36 32 37 34 36 37 34 18 19 28 23 29 30 32 30 25 41 41 29 23 20 20 26 23 26 28 21 25
32 50 40 49 26 18 20 20 21 22 19 18 20 17 19 56 21 30 30 32 28 31 21 22 24 17 22 23 23 23 24 27 48 26 44 26 28 18 26 27 24 28 27 23 31
45 55 42 60 31 36 48 24 20 27 22 17 20 19 17 22 23 26 24 20 23 19 21 19 27 18 23 22 20 23 24 25 19 20 21 23 19 23 25 22 28 31 22 30 33
31 30 29 59 29 32 28 19 21 22 26 18 17 19 25 26 21 19 19 20 22 20 21 24 23 26 23 18 21 26 19 20 20 20 26 26 29 28 30 29 34 27 27 32 35
Wind_Speed
12 10 9 8 7 6 5 4 3 3 5 7 8 9 10 11 11 1 13 11 11 17 15 11 8 3 1 4 3 2 1 6 1 2 8 14 4 13 15 18 22 16 16 11 5
12 10 8 7 6 6 5 4 3 3 5 7 9 9 9 11 8 15 9 18 16 14 8 6 4 1 3 3 2 3 3 5 6 8 15 20 17 10 14 18 17 16 18 19 15
12 11 9 7 6 4 4 4 3 4 6 8 9 10 10 9 8 10 20 20 17 14 7 7 4 3 4 5 6 5 8 12 13 9 4 15 22 21 4 15 17 16 13 14 15
12 11 9 7 6 5 4 4 4 5 7 9 9 10 7 9 2 14 19 18 15 8 9 5 5 2 4 6 6 13 17 13 15 14 10 15 16 20 18 13 12 13 13 15 16
12 10 9 8 7 6 5 5 5 5 7 8 9 9 7 8 8 17 14 10 10 6 7 8 4 3 5 13 16 16 14 14 15 18 19 19 18 16 15 11 11 12 13 14 15
12 10 9 9 8 7 5 5 6 6 7 9 7 10 3 11 9 14 14 13 15 8 12 13 11 10 10 7 8 12 15 13 13 12 9 15 13 6 11 9 10 11 13 15 17
12 11 10 9 9 7 5 5 6 6 7 8 11 6 16 10 8 13 12 12 11 13 10 12 6 3 6 10 14 16 13 10 5 6 7 9 16 11 8 8 10 13 15 15 18
12 11 10 10 9 7 5 3 3 5 5 6 8 4 7 4 7 16 15 3 9 10 8 7 5 10 6 6 6 6 5 5 9 8 5 4 7 9 8 9 12 14 15 17 20
11 10 9 10 9 6 5 2 5 6 6 7 4 4 5 2 15 14 13 8 9 3 8 5 7 10 1 5 7 3 11 13 5 9 8 8 9 8 7 10 12 14 16 18 20
11 9 9 9 10 8 8 5 7 3 6 3 8 6 8 10 10 14 12 9 4 3 1 4 5 9 14 13 7 13 13 12 9 8 7 7 10 7 9 10 12 15 18 20 22
10 9 8 8 8 9 7 5 7 4 18 10 8 7 7 12 4 17 19 8 1 5 4 10 12 12 13 12 6 9 10 12 17 7 11 5 7 6 4 9 14 17 20 23 23
10 9 6 7 8 10 7 4 5 4 10 8 10 8 6 11 5 23 22 3 13 10 2 8 16 10 4 12 13 7 10 14 6 2 7 8 7 4 4 10 15 19 22 24 24
9 7 5 5 9 5 6 6 4 6 1 6 6 7 6 9 10 16 16 5 9 15 20 18 9 5 7 12 17 4 13 16 19 17 3 4 9 6 4 9 16 20 23 23 25
6 5 4 5 3 2 4 2 4 4 6 8 8 8 10 1 5 11 11 4 7 10 8 10 11 10 9 11 16 7 17 16 14 9 5 3 3 7 4 13 20 25 24 24 26
3 5 6 1 3 2 4 3 5 4 5 6 5 4 7 7 4 18 11 11 14 14 4 6 9 15 12 11 14 9 25 20 8 8 6 5 8 9 7 17 26 26 26 26 26
3 4 3 2 3 3 3 4 5 7 4 3 4 8 0 12 5 6 11 8 1 7 16 11 6 9 11 9 5 22 23 7 4 5 4 6 7 10 9 18 25 26 28 28 28
7 11 5 2 3 4 4 4 7 4 2 4 4 5 4 9 8 9 9 17 9 7 9 8 16 5 19 9 1 22 20 5 4 5 7 18 9 10 9 20 22 26 28 29 29
3 4 5 6 3 4 4 6 4 3 4 2 2 1 5 9 6 9 2 7 14 12 6 8 1 14 15 15 9 13 14 7 8 10 12 10 10 7 7 21 23 24 27 28 28
9 4 3 6 5 4 6 4 7 5 3 1 2 3 5 4 4 3 9 7 10 14 9 9 6 5 8 9 16 9 8 5 7 7 8 6 8 8 21 23 25 27 28 27 27
3 2 4 7 6 5 3 5 3 3 3 3 3 4 4 7 2 4 7 6 6 8 7 7 3 5 3 4 12 8 8 1 4 9 10 10 6 11 25 27 28 30 29 28 27
4 3 4 7 5 2 1 6 5 4 3 5 3 2 5 5 6 5 7 3 6 7 6 6 3 5 2 9 11 7 7 5 3 3 5 9 5 12 22 25 29 30 29 28 29
3 3 5 5 3 3 4 4 2 4 2 3 3 6 5 4 5 4 5 6 7 6 5 6 6 4 5 5 5 10 7 6 4 6 5 4 6 19 24 23 27 29 27 28 28
1 2 2 4 3 4 5 5 4 3 3 2 3 4 2 3 1 3 5 3 5 6 6 7 3 3 7 5 5 4 5 2 1 4 3 4 7 20 21 25 26 29 28 27 29
2 2 3 3 2 8 9 7 6 3 4 4 4 1 3 4 6 4 4 2 3 4 5 5 3 5 5 5 3 2 1 3 5 5 10 11 22 23 23 26 28 28 29 28 27
3 2 4 3 3 8 5 6 9 5 3 0 3 3 3 3 3 4 4 4 2 1 1 4 2 2 3 2 2 4 3 3 3 8 6 17 19 19 23 26 27 27 27 29 29
2 4 4 3 5 10 2 6 9 6 2 3 3 4 3 4 5 3 3 1 4 2 1 3 1 3 2 2 5 5 4 6 7 8 12 15 17 20 23 24 25 27 28 28 28
2 1 1 2 6 4 3 8 9 11 6 5 10 10 11 9 9 9 9 7 5 2 2 3 2 3 2 1 3 6 2 3 9 10 10 13 18 20 23 24 26 24 27 28 28
Wind_Direction
351 350 352 352 348 349 349 349 335 335 334 337 340 346 333 320 297 214 38 331 308 311 308 277 254 260 273 64 13 270 190 104 126 316 84 9 71 70 80 64 57 59 61 69 63
346 349 348 352 350 350 348 339 335 339 327 327 327 325 321 317 299 54 358 347 333 324 294 320 37 138 92 53 19 314 123 67 15 26 78 52 39 37 69 42 48 57 46 28 34
345 348 350 356 354 353 342 337 337 321 320 319 315 313 309 295 276 19 1 339 323 306 297 301 295 341 73 43 12 6 85 85 23 20 89 91 57 31 21 51 37 38 34 31 22
349 349 350 351 359 355 352 341 329 332 321 315 311 296 284 249 19 355 347 317 299 306 283 269 248 325 51 70 81 92 49 67 49 47 72 83 91 65 61 61 53 45 31 27 22
349 348 348 353 2 1 357 340 329 320 327 317 314 280 267 73 22 340 328 353 354 1 19 352 17 15 78 93 88 98 103 87 86 84 84 84 72 74 67 59 52 41 30 21 10
346 347 353 356 359 358 352 332 315 319 320 308 295 302 222 73 345 350 357 12 14 36 47 34 36 56 68 26 19 99 104 99 87 85 88 87 60 77 58 45 40 25 20 7 6
346 350 359 -0 354 349 341 324 313 312 317 331 329 331 61 47 3 357 346 23 29 30 63 36 20 60 98 94 106 127 115 121 65 102 117 144 69 60 42 33 25 14 10 2 0
347 351 1 359 355 357 343 340 23 0 313 292 300 279 62 33 344 7 3 14 18 41 63 40 55 76 41 110 174 243 243 253 64 14 107 248 82 63 40 25 23 12 7 358 357
346 353 360 358 354 1 353 253 255 289 326 284 290 312 59 60 13 348 3 347 319 19 60 62 70 64 138 261 216 182 342 346 115 52 5 347 93 65 29 28 14 2 358 358 350
340 350 357 355 352 347 309 298 324 235 262 236 27 145 48 356 347 346 358 333 342 297 131 48 62 59 36 16 20 334 332 330 330 25 351 69 94 77 46 23 1 354 357 350 347
335 342 354 345 335 332 299 221 214 111 44 56 26 62 21 345 284 9 345 308 293 52 79 45 62 41 32 24 345 305 300 320 347 65 323 81 122 93 37 18 5 1 352 348 344
330 334 345 335 319 308 280 350 39 76 87 57 53 59 31 323 357 11 346 43 38 46 164 119 53 28 20 13 334 333 348 346 318 302 321 119 127 113 27 22 8 355 348 350 345
326 332 333 331 324 301 54 62 351 334 155 64 55 27 4 353 36 358 4 3 21 47 52 59 25 2 12 18 352 65 1 338 314 315 135 189 161 197 103 15 358 350 352 350 346
334 15 7 327 307 100 80 63 339 331 217 26 12 39 355 325 69 27 6 335 54 35 58 58 23 14 20 22 352 306 356 321 321 317 355 204 16 132 15 360 354 351 351 346 344
324 24 41 40 48 212 57 331 322 237 242 17 25 332 17 57 326 22 14 43 56 25 250 55 31 17 26 1 351 326 315 288 283 285 307 103 293 105 48 355 354 347 347 345 341
51 24 312 200 95 44 313 300 250 230 85 76 15 354 158 35 45 2 28 48 25 67 74 74 71 34 356 313 336 331 323 81 193 258 230 37 337 83 22 4 350 345 341 341 339
44 60 45 347 66 348 298 243 248 343 178 67 12 5 58 25 43 28 52 46 30 327 36 131 51 93 10 353 185 1 354 352 341 334 9 360 310 59 19 8 356 343 340 339 339
329 226 86 58 6 309 244 241 279 36 35 87 333 2 54 353 56 27 54 51 31 353 316 344 231 20 18 31 322 356 10 25 319 343 317 298 341 87 357 6 355 344 339 338 339
305 127 78 24 348 281 260 255 25 40 23 312 234 270 104 72 344 89 55 38 23 11 5 346 85 122 34 14 10 346 24 340 288 284 292 353 74 163 2 358 350 344 341 338 336
282 138 61 338 325 255 267 71 84 47 338 273 352 347 19 19 333 40 36 15 11 20 338 24 273 34 40 250 58 44 350 358 319 346 317 340 36 350 351 350 346 344 339 339 336
264 193 39 329 265 242 25 66 110 69 355 348 42 80 56 29 18 48 34 77 9 354 334 343 266 104 237 31 9 9 25 8 269 15 310 316 42 5 351 348 343 338 338 338 340
296 196 19 311 166 24 92 91 83 106 80 63 55 44 46 38 52 76 73 38 3 339 5 18 317 19 52 99 43 42 27 1 357 342 310 261 289 20 353 342 342 334 338 341 329
304 77 71 292 156 107 126 98 65 139 53 77 89 21 45 78 91 62 77 37 16 14 12 2 60 283 174 186 185 42 25 17 219 240 265 306 294 359 336 341 339 335 340 333 343
249 146 100 79 341 141 142 136 116 52 88 66 103 127 142 97 41 120 107 101 24 39 351 288 360 7 343 360 338 307 349 333 322 283 327 284 326 331 345 337 335 338 339 338 341
352 74 1 143 146 138 99 142 137 128 77 134 110 56 57 104 107 98 102 141 119 56 337 328 323 7 27 42 288 322 272 256 241 308 293 314 320 338 337 333 334 338 329 345 342
152 144 73 60 110 125 140 161 141 120 341 116 143 98 47 76 29 123 132 306 41 125 27 4 22 298 216 269 292 263 237 277 292 304 303 311 310 347 327 329 338 332 350 342 341
113 85 144 215 166 189 126 146 149 131 54 43 122 110 81 75 80 78 74 76 75 11 71 340 333 298 13 326 298 228 232 284 319 328 318 312 328 330 331 335 334 335 348 341 343